VOI1691 MMMX-MMGL

Flight info

Callsign VOI1691
Flight time 0h 49m
Altitude 34000
Route OVAGO3B OVAGO UT123 IGSON IGSON1B
Aircraft A21N/M-SDE2E3FGHIRWXY/LB1

Departure

Time 2026-05-05 23:48
Airport Mexico City Benito Juárez International Airport (MMMX)

Arrival

Time 2026-05-06 00:37
Airport Guadalajara International Airport (MMGL)
Time Latitude Longitude Altitude Speed Heading
2026-05-05 22:26 19.43338 -99.08425 7309 ft 0 kts 329°
2026-05-05 22:36 19.43337 -99.08425 7308 ft 0 kts 329°
2026-05-05 22:42 19.43337 -99.08424 7308 ft 0 kts 329°
2026-05-05 22:45 19.43336 -99.08424 7308 ft 0 kts 329°
2026-05-05 22:55 19.43335 -99.08424 7308 ft 0 kts 329°
2026-05-05 22:57 19.43335 -99.08423 7308 ft 0 kts 329°
2026-05-05 23:09 19.43334 -99.08423 7317 ft 0 kts 329°
2026-05-05 23:20 19.43334 -99.08422 7308 ft 0 kts 329°
2026-05-05 23:22 19.43333 -99.08422 7308 ft 0 kts 329°
2026-05-05 23:27 19.43321 -99.08414 7308 ft 4 kts 329°
2026-05-05 23:27 19.43298 -99.08399 7308 ft 4 kts 328°
2026-05-05 23:27 19.43278 -99.08389 7308 ft 4 kts 357°
2026-05-05 23:27 19.43258 -99.08397 7308 ft 4 kts 50°
2026-05-05 23:28 19.43248 -99.08412 7308 ft 1 kts 59°
2026-05-05 23:28 19.43246 -99.08415 7308 ft 1 kts 59°
2026-05-05 23:36 19.43306 -99.08309 7308 ft 11 kts 59°
2026-05-05 23:36 19.43350 -99.08230 7308 ft 13 kts 59°
2026-05-05 23:36 19.43399 -99.08143 7308 ft 7 kts 59°
2026-05-05 23:37 19.43426 -99.08096 7308 ft 9 kts 60°
2026-05-05 23:37 19.43459 -99.08034 7308 ft 10 kts 56°
2026-05-05 23:37 19.43500 -99.07964 7308 ft 12 kts 60°
2026-05-05 23:37 19.43543 -99.07878 7308 ft 14 kts 62°
2026-05-05 23:38 19.43602 -99.07781 7308 ft 18 kts 58°
2026-05-05 23:38 19.43694 -99.07616 7308 ft 39 kts 58°
2026-05-05 23:38 19.43831 -99.07361 7308 ft 37 kts 60°
2026-05-05 23:38 19.43927 -99.07196 7308 ft 20 kts 57°
2026-05-05 23:39 19.44008 -99.07054 7308 ft 25 kts 61°
2026-05-05 23:39 19.44125 -99.06863 7308 ft 34 kts 56°
2026-05-05 23:39 19.44244 -99.06643 7308 ft 35 kts 58°
2026-05-05 23:39 19.44335 -99.06486 7308 ft 11 kts 58°
2026-05-05 23:40 19.44372 -99.06410 7308 ft 13 kts 59°
2026-05-05 23:40 19.44399 -99.06363 7308 ft 6 kts 58°
2026-05-05 23:40 19.44411 -99.06314 7308 ft 8 kts 78°
2026-05-05 23:40 19.44401 -99.06244 7308 ft 16 kts 103°
2026-05-05 23:41 19.44351 -99.06104 7308 ft 17 kts 113°
2026-05-05 23:41 19.44310 -99.06000 7308 ft 15 kts 112°
2026-05-05 23:41 19.44266 -99.05886 7308 ft 23 kts 112°
2026-05-05 23:41 19.44187 -99.05678 7308 ft 33 kts 102°
2026-05-05 23:42 19.44260 -99.05459 7308 ft 27 kts 58°
2026-05-05 23:42 19.44294 -99.05399 7308 ft 4 kts 58°
2026-05-05 23:42 19.44297 -99.05394 7308 ft 0 kts 58°
2026-05-05 23:43 19.44319 -99.05355 7308 ft 16 kts 59°
2026-05-05 23:43 19.44365 -99.05275 7308 ft 12 kts 49°
2026-05-05 23:44 19.44432 -99.05266 7308 ft 7 kts 331°
2026-05-05 23:44 19.44434 -99.05268 7308 ft 0 kts 335°
2026-05-05 23:47 19.44436 -99.05268 7308 ft 2 kts 341°
2026-05-05 23:47 19.44481 -99.05395 7308 ft 40 kts 245°
2026-05-05 23:47 19.44207 -99.05907 7306 ft 118 kts 240°
2026-05-05 23:48 19.43689 -99.06843 7308 ft 174 kts 240°
2026-05-05 23:48 19.43031 -99.07959 7734 ft 175 kts 242°
2026-05-05 23:48 19.42412 -99.09146 8293 ft 186 kts 242°
2026-05-05 23:48 19.41788 -99.10352 8797 ft 192 kts 240°
2026-05-05 23:49 19.41118 -99.11611 9057 ft 201 kts 240°
2026-05-05 23:49 19.40405 -99.12936 9217 ft 212 kts 238°
2026-05-05 23:49 19.39648 -99.14336 9378 ft 226 kts 239°
2026-05-05 23:49 19.38846 -99.15815 9579 ft 239 kts 239°
2026-05-05 23:50 19.37998 -99.17379 9841 ft 256 kts 239°
2026-05-05 23:50 19.37217 -99.19146 10250 ft 267 kts 255°
2026-05-05 23:50 19.37141 -99.21079 10745 ft 270 kts 282°
2026-05-05 23:50 19.37929 -99.22874 11280 ft 273 kts 310°
2026-05-05 23:51 19.39341 -99.24226 11879 ft 275 kts 322°
2026-05-05 23:51 19.40705 -99.25699 12205 ft 286 kts 300°
2026-05-05 23:51 19.41377 -99.27721 12452 ft 300 kts 279°
2026-05-05 23:51 19.41652 -99.29926 12865 ft 308 kts 276°
2026-05-05 23:52 19.41905 -99.32231 13434 ft 312 kts 277°
2026-05-05 23:52 19.42177 -99.34493 14011 ft 315 kts 277°
2026-05-05 23:52 19.42478 -99.36804 14528 ft 319 kts 278°
2026-05-05 23:52 19.42798 -99.39153 15244 ft 323 kts 278°
2026-05-05 23:53 19.43127 -99.41524 15782 ft 328 kts 278°
2026-05-05 23:53 19.43436 -99.43929 16347 ft 332 kts 275°
2026-05-05 23:53 19.43366 -99.46385 16853 ft 336 kts 256°
2026-05-05 23:53 19.42619 -99.48728 17435 ft 338 kts 247°
2026-05-05 23:54 19.41715 -99.51016 18033 ft 341 kts 246°
2026-05-05 23:54 19.40806 -99.53351 18609 ft 345 kts 247°
2026-05-05 23:54 19.39912 -99.55719 19099 ft 348 kts 247°
2026-05-05 23:54 19.39022 -99.58128 19601 ft 351 kts 248°
2026-05-05 23:55 19.38136 -99.60548 20104 ft 353 kts 248°
2026-05-05 23:55 19.37537 -99.62166 20351 ft 359 kts 247°
2026-05-05 23:55 19.36608 -99.64657 20582 ft 370 kts 247°
2026-05-05 23:55 19.35321 -99.68105 20821 ft 387 kts 247°
2026-05-05 23:56 19.34644 -99.69922 20954 ft 395 kts 247°
2026-05-05 23:56 19.33631 -99.72643 21323 ft 399 kts 247°
2026-05-05 23:56 19.32609 -99.75384 21773 ft 402 kts 247°
2026-05-05 23:56 19.31578 -99.78149 22233 ft 404 kts 247°
2026-05-05 23:57 19.30558 -99.80886 22650 ft 407 kts 247°
2026-05-05 23:57 19.29514 -99.83692 23074 ft 410 kts 246°
2026-05-05 23:57 19.28463 -99.86505 23480 ft 413 kts 246°
2026-05-05 23:57 19.27403 -99.89336 23834 ft 415 kts 246°
2026-05-05 23:58 19.26329 -99.92203 24198 ft 417 kts 246°
2026-05-05 23:58 19.25261 -99.95056 24554 ft 418 kts 246°
2026-05-05 23:58 19.24190 -99.97914 24967 ft 419 kts 246°
2026-05-05 23:58 19.23124 -100.00755 25340 ft 419 kts 245°
2026-05-05 23:59 19.22045 -100.03631 25725 ft 421 kts 245°
2026-05-05 23:59 19.20963 -100.06516 26113 ft 422 kts 246°
2026-05-05 23:59 19.19887 -100.09406 26508 ft 423 kts 248°
2026-05-05 23:59 19.19108 -100.12431 26876 ft 428 kts 259°
2026-05-06 00:00 19.18987 -100.15554 27188 ft 433 kts 273°
2026-05-06 00:00 19.19577 -100.18687 27552 ft 438 kts 285°
2026-05-06 00:00 19.20549 -100.21748 27908 ft 440 kts 287°
2026-05-06 00:00 19.21575 -100.24811 28241 ft 443 kts 287°
2026-05-06 00:01 19.22590 -100.27891 28496 ft 445 kts 286°
2026-05-06 00:01 19.23593 -100.31001 28868 ft 446 kts 286°
2026-05-06 00:01 19.24593 -100.34125 29195 ft 448 kts 286°
2026-05-06 00:01 19.25590 -100.37254 29517 ft 449 kts 286°
2026-05-06 00:02 19.26579 -100.40372 29829 ft 451 kts 286°
2026-05-06 00:02 19.27580 -100.43526 30057 ft 452 kts 286°
2026-05-06 00:02 19.28583 -100.46686 30319 ft 454 kts 286°
2026-05-06 00:02 19.29590 -100.49859 30595 ft 454 kts 286°
2026-05-06 00:03 19.30597 -100.53037 30844 ft 455 kts 286°
2026-05-06 00:03 19.31604 -100.56223 31103 ft 456 kts 286°
2026-05-06 00:03 19.32610 -100.59405 31415 ft 455 kts 286°
2026-05-06 00:03 19.33603 -100.62545 31768 ft 453 kts 286°
2026-05-06 00:04 19.34601 -100.65701 32109 ft 451 kts 286°
2026-05-06 00:04 19.35597 -100.68855 32489 ft 449 kts 286°
2026-05-06 00:04 19.36588 -100.71976 32930 ft 444 kts 287°
2026-05-06 00:04 19.37633 -100.75041 33435 ft 436 kts 288°
2026-05-06 00:05 19.39639 -100.80856 33814 ft 411 kts 288°
2026-05-06 00:05 19.40605 -100.83660 33821 ft 409 kts 287°
2026-05-06 00:06 19.42548 -100.89316 33818 ft 408 kts 287°
2026-05-06 00:06 19.44490 -100.94969 33814 ft 408 kts 287°
2026-05-06 00:07 19.46433 -101.00627 33844 ft 409 kts 287°
2026-05-06 00:07 19.48363 -101.06253 33859 ft 408 kts 287°
2026-05-06 00:08 19.50295 -101.11896 33863 ft 407 kts 287°
2026-05-06 00:08 19.52224 -101.17537 33870 ft 407 kts 287°
2026-05-06 00:09 19.54155 -101.23185 33870 ft 407 kts 287°
2026-05-06 00:09 19.56081 -101.28828 33872 ft 407 kts 287°
2026-05-06 00:10 19.57993 -101.34436 33893 ft 406 kts 287°
2026-05-06 00:10 19.59911 -101.40069 33894 ft 404 kts 287°
2026-05-06 00:11 19.61805 -101.45629 33885 ft 397 kts 287°
2026-05-06 00:11 19.63690 -101.51180 33912 ft 405 kts 287°
2026-05-06 00:12 19.65606 -101.56823 33913 ft 406 kts 287°
2026-05-06 00:12 19.67520 -101.62469 33926 ft 406 kts 287°
2026-05-06 00:13 19.69420 -101.68083 33909 ft 407 kts 287°
2026-05-06 00:13 19.70390 -101.70951 33631 ft 411 kts 287°
2026-05-06 00:13 19.71346 -101.73777 33208 ft 411 kts 287°
2026-05-06 00:13 19.72307 -101.76622 32708 ft 408 kts 287°
2026-05-06 00:14 19.73264 -101.79451 32182 ft 405 kts 287°
2026-05-06 00:14 19.74216 -101.82267 31648 ft 404 kts 286°
2026-05-06 00:14 19.75162 -101.85071 31131 ft 403 kts 286°
2026-05-06 00:14 19.76106 -101.87874 30628 ft 402 kts 286°
2026-05-06 00:15 19.77044 -101.90660 30143 ft 400 kts 286°
2026-05-06 00:15 19.77982 -101.93445 29576 ft 399 kts 286°
2026-05-06 00:15 19.78901 -101.96176 29018 ft 398 kts 286°
2026-05-06 00:15 19.79831 -101.98938 28453 ft 395 kts 286°
2026-05-06 00:16 19.80754 -102.01691 27942 ft 393 kts 286°
2026-05-06 00:16 19.81673 -102.04425 27460 ft 391 kts 286°
2026-05-06 00:16 19.82571 -102.07102 26984 ft 389 kts 286°
2026-05-06 00:16 19.83479 -102.09807 26479 ft 388 kts 286°
2026-05-06 00:17 19.84386 -102.12511 25979 ft 387 kts 286°
2026-05-06 00:17 19.85289 -102.15203 25499 ft 386 kts 286°
2026-05-06 00:17 19.86189 -102.17890 25029 ft 385 kts 286°
2026-05-06 00:17 19.87085 -102.20564 24538 ft 385 kts 286°
2026-05-06 00:18 19.87971 -102.23207 24107 ft 382 kts 286°
2026-05-06 00:18 19.88861 -102.25871 23901 ft 382 kts 286°
2026-05-06 00:18 19.89752 -102.28538 23863 ft 383 kts 286°
2026-05-06 00:18 19.90644 -102.31204 23872 ft 383 kts 286°
2026-05-06 00:19 19.91537 -102.33873 23455 ft 385 kts 286°
2026-05-06 00:19 19.92445 -102.36595 22474 ft 394 kts 286°
2026-05-06 00:19 19.93356 -102.39325 21775 ft 396 kts 287°
2026-05-06 00:19 19.94274 -102.42073 21281 ft 392 kts 287°
2026-05-06 00:20 19.95180 -102.44793 20720 ft 390 kts 287°
2026-05-06 00:20 19.96087 -102.47509 20196 ft 387 kts 287°
2026-05-06 00:20 19.96983 -102.50201 19729 ft 382 kts 287°
2026-05-06 00:20 19.97861 -102.52844 19307 ft 377 kts 287°
2026-05-06 00:21 19.98735 -102.55475 18811 ft 374 kts 287°
2026-05-06 00:21 19.99590 -102.58044 18342 ft 372 kts 288°
2026-05-06 00:21 20.00692 -102.60518 17851 ft 370 kts 303°
2026-05-06 00:21 20.02457 -102.62482 17284 ft 370 kts 322°
2026-05-06 00:22 20.04699 -102.63801 16821 ft 366 kts 334°
2026-05-06 00:22 20.07011 -102.64919 16293 ft 364 kts 334°
2026-05-06 00:22 20.09297 -102.66053 15831 ft 360 kts 333°
2026-05-06 00:22 20.11536 -102.67215 15339 ft 357 kts 332°
2026-05-06 00:23 20.13751 -102.68390 14904 ft 353 kts 333°
2026-05-06 00:23 20.16054 -102.69269 14389 ft 352 kts 350°
2026-05-06 00:23 20.18458 -102.69237 13942 ft 350 kts 12°
2026-05-06 00:23 20.20679 -102.68290 13737 ft 338 kts 29°
2026-05-06 00:24 20.22678 -102.67096 13679 ft 321 kts 29°
2026-05-06 00:24 20.24605 -102.66015 13659 ft 305 kts 27°
2026-05-06 00:24 20.26511 -102.65028 13658 ft 305 kts 25°
2026-05-06 00:24 20.28431 -102.64088 13674 ft 303 kts 24°
2026-05-06 00:25 20.30348 -102.63186 13676 ft 304 kts 24°
2026-05-06 00:25 20.32281 -102.62289 13684 ft 304 kts 23°
2026-05-06 00:25 20.34270 -102.61516 13677 ft 304 kts 10°
2026-05-06 00:25 20.36440 -102.61361 13649 ft 322 kts 352°
2026-05-06 00:26 20.38578 -102.61982 13483 ft 315 kts 329°
2026-05-06 00:26 20.40252 -102.63389 13259 ft 307 kts 306°
2026-05-06 00:26 20.41289 -102.65351 13025 ft 304 kts 286°
2026-05-06 00:26 20.41586 -102.67562 12749 ft 300 kts 267°
2026-05-06 00:27 20.41459 -102.69771 12431 ft 297 kts 264°
2026-05-06 00:27 20.41300 -102.71971 12078 ft 297 kts 264°
2026-05-06 00:27 20.41160 -102.74166 11709 ft 297 kts 265°
2026-05-06 00:27 20.41037 -102.76341 11338 ft 297 kts 266°
2026-05-06 00:28 20.40922 -102.78545 10974 ft 298 kts 266°
2026-05-06 00:28 20.40812 -102.80754 10596 ft 299 kts 266°
2026-05-06 00:28 20.40703 -102.82979 10216 ft 301 kts 267°
2026-05-06 00:28 20.40598 -102.85201 9878 ft 299 kts 267°
2026-05-06 00:29 20.40496 -102.87355 9551 ft 288 kts 268°
2026-05-06 00:29 20.40397 -102.89451 9207 ft 277 kts 267°
2026-05-06 00:29 20.40301 -102.91463 9033 ft 266 kts 267°
2026-05-06 00:29 20.40207 -102.93389 8892 ft 254 kts 267°
2026-05-06 00:30 20.40119 -102.95236 8703 ft 248 kts 267°
2026-05-06 00:30 20.40031 -102.97090 8643 ft 250 kts 267°
2026-05-06 00:30 20.39943 -102.98927 8666 ft 247 kts 267°
2026-05-06 00:30 20.39856 -103.00748 8681 ft 245 kts 269°
2026-05-06 00:31 20.40072 -103.02547 8647 ft 240 kts 289°
2026-05-06 00:31 20.40707 -103.04072 8581 ft 217 kts 294°
2026-05-06 00:31 20.41337 -103.05464 8385 ft 200 kts 295°
2026-05-06 00:31 20.41943 -103.06724 8339 ft 182 kts 294°
2026-05-06 00:32 20.42448 -103.07896 8214 ft 169 kts 293°
2026-05-06 00:32 20.42932 -103.09044 8101 ft 170 kts 293°
2026-05-06 00:32 20.43415 -103.10198 8075 ft 171 kts 293°
2026-05-06 00:32 20.43901 -103.11356 7934 ft 171 kts 293°
2026-05-06 00:33 20.44384 -103.12507 7930 ft 169 kts 293°
2026-05-06 00:33 20.44849 -103.13617 7751 ft 166 kts 293°
2026-05-06 00:33 20.45317 -103.14733 7574 ft 165 kts 294°
2026-05-06 00:33 20.45786 -103.15852 7424 ft 167 kts 293°
2026-05-06 00:34 20.46263 -103.16991 7265 ft 167 kts 292°
2026-05-06 00:34 20.46738 -103.18126 7073 ft 165 kts 292°
2026-05-06 00:34 20.47201 -103.19233 6900 ft 163 kts 292°
2026-05-06 00:34 20.47652 -103.20309 6716 ft 148 kts 293°
2026-05-06 00:35 20.48062 -103.21287 6564 ft 144 kts 293°
2026-05-06 00:35 20.48471 -103.22266 6399 ft 144 kts 292°
2026-05-06 00:35 20.48879 -103.23241 6253 ft 144 kts 293°
2026-05-06 00:35 20.49284 -103.24208 6124 ft 145 kts 293°
2026-05-06 00:36 20.49694 -103.25187 5969 ft 144 kts 294°
2026-05-06 00:36 20.50101 -103.26159 5778 ft 144 kts 294°
2026-05-06 00:36 20.50515 -103.27148 5561 ft 146 kts 294°
2026-05-06 00:36 20.50928 -103.28133 5327 ft 145 kts 294°
2026-05-06 00:37 20.51336 -103.29109 5123 ft 143 kts 294°
2026-05-06 00:37 20.51731 -103.30052 5024 ft 129 kts 294°
2026-05-06 00:37 20.51992 -103.30675 5025 ft 57 kts 295°
2026-05-06 00:37 20.52197 -103.30876 5023 ft 25 kts 330°
2026-05-06 00:38 20.52253 -103.30926 5026 ft 0 kts 327°
2026-05-06 00:38 20.52256 -103.30928 5026 ft 7 kts 326°
2026-05-06 00:39 20.52350 -103.30987 5027 ft 13 kts 353°
2026-05-06 00:39 20.52423 -103.31016 5027 ft 14 kts 277°
2026-05-06 00:39 20.52434 -103.31069 5026 ft 0 kts 287°
2026-05-06 00:40 20.52433 -103.31069 5026 ft 0 kts 287°